Grand Junction, CO

3:02 PM MST on February 06, 2016 (GMT -0700)
Walker

Weather History for KGJT - March, 2013

Change the Weather History Date:

Wednesday, March 20, 2013

  Actual Average Record
Temperature  
Mean Temperature 44 °F 45 °F  
Max Temperature 57 °F 58 °F 81 °F (2004)
Min Temperature 30 °F 32 °F 16 °F (1965)
Degree Days  
Heating Degree Days 21 20  
Month to date heating degree days 419 447  
Since 1 July heating degree days 5182 4826  
Cooling Degree Days 0 0  
Month to date cooling degree days 0 0  
Year to date cooling degree days 0 0  
Moisture  
Dew Point 13 °F    
Average Humidity 35    
Maximum Humidity 54    
Minimum Humidity 15    
Precipitation  
Precipitation 0.00 in 0.03 in 0.50 in (1979)
Month to date precipitation 0.24 0.54  
Year to date precipitation 1.24 1.66  
Snow  
Snow 0.00 in 0.10 in 4.90 in (2000)
Month to date snowfall T 1.7  
Since 1 July snowfall 20.0 17.2  
Snow Depth 0.00 in    
Sea Level Pressure  
Sea Level Pressure 29.99 in    
Wind  
Wind Speed 11 mph (SE)    
Max Wind Speed 20 mph    
Max Gust Speed 25 mph    
Visibility 10 miles    
Events      
T = Trace of Precipitation, MM = Missing Value Source: NWS Daily Summary

Daily Weather History Graph

Daily Weather History Graph

Search for Another Location

Airport or City:

Trip Planner

Search our weather history database for the weather conditions in past years. The results will help you decide how hot, cold, wet, or windy it might be!

Date:

Astronomy

Mar. 20, 2013 Rise Set
Actual Time 7:17 AM MDT 7:26 PM MDT
Civil Twilight 6:50 AM MDT 7:53 PM MDT
Nautical Twilight 6:19 AM MDT 8:24 PM MDT
Astronomical Twilight 5:47 AM MDT 8:56 PM MDT
Moon 1:06 PM MDT (3/20) 2:56 AM MDT (3/20)
Length of Visible Light 13h 02m
Length of Day
12h 09m
First Quarter, 60% of the Moon is Illuminated
Mar 20
First Quarter
Mar 27
Full
Apr 2
Last Quarter
Apr 10
New
Apr 18
First Quarter

Hourly Weather History & Observations

Time (MDT) Temp. Windchill Dew Point Humidity Pressure Visibility Wind Dir Wind Speed Gust Speed Precip Events Conditions
12:53 AM 35.1 °F 31.0 °F 3.9 °F 27% 30.16 in 10.0 mi East 4.6 mph - N/A   Clear
1:53 AM 32.0 °F 24.2 °F 6.1 °F 34% 30.16 in 10.0 mi ESE 9.2 mph - N/A   Clear
2:53 AM 35.1 °F 26.9 °F 7.0 °F 31% 30.15 in 10.0 mi East 11.5 mph - N/A   Clear
3:53 AM 33.1 °F 23.0 °F 8.1 °F 35% 30.14 in 10.0 mi ESE 15.0 mph - N/A   Clear
4:53 AM 30.9 °F 22.2 °F 8.1 °F 38% 30.13 in 10.0 mi ESE 10.4 mph - N/A   Clear
5:53 AM 32.0 °F 21.6 °F 8.1 °F 37% 30.13 in 10.0 mi East 15.0 mph - N/A   Clear
6:53 AM 30.9 °F 22.8 °F 8.1 °F 38% 30.13 in 10.0 mi East 9.2 mph - N/A   Clear
7:53 AM 35.1 °F 29.3 °F 7.0 °F 31% 30.14 in 10.0 mi SE 6.9 mph - N/A   Clear
8:53 AM 39.9 °F 31.4 °F 7.0 °F 26% 30.13 in 10.0 mi ESE 16.1 mph - N/A   Clear
9:53 AM 42.1 °F 34.5 °F 5.0 °F 22% 30.09 in 10.0 mi ESE 15.0 mph - N/A   Clear
10:53 AM 44.1 °F 37.4 °F 6.1 °F 21% 30.06 in 10.0 mi SE 13.8 mph - N/A   Partly Cloudy
11:53 AM 46.9 °F - 7.0 °F 20% 30.06 in 10.0 mi SE 16.1 mph - N/A   Clear
12:53 PM 48.9 °F - 10.9 °F 22% 30.02 in 10.0 mi SE 11.5 mph - N/A   Scattered Clouds
1:53 PM 53.1 °F - 9.0 °F 17% 29.97 in 10.0 mi SSE 8.1 mph - N/A   Partly Cloudy
2:53 PM 55.0 °F - 9.0 °F 16% 29.92 in 10.0 mi SSE 10.4 mph - N/A   Overcast
3:53 PM 55.9 °F - 16.0 °F 21% 29.89 in 10.0 mi SSE 8.1 mph - N/A   Overcast
4:53 PM 54.0 °F - 14.0 °F 21% 29.89 in 10.0 mi West 5.8 mph - N/A   Overcast
5:53 PM 53.1 °F - 16.0 °F 23% 29.87 in 10.0 mi West 6.9 mph - N/A   Overcast
6:53 PM 51.1 °F - 16.0 °F 25% 29.87 in 10.0 mi NW 3.5 mph - N/A   Overcast
7:53 PM 50.0 °F - 17.1 °F 27% 29.84 in 10.0 mi Calm Calm - N/A   Overcast
8:53 PM 48.0 °F - 19.0 °F 32% 29.83 in 10.0 mi ESE 3.5 mph - N/A   Overcast
9:53 PM 50.0 °F - 28.9 °F 44% 29.81 in 10.0 mi SE 17.3 mph - N/A   Overcast
10:53 PM 48.9 °F - 30.9 °F 50% 29.79 in 10.0 mi ESE 13.8 mph - N/A   Overcast
11:53 PM 48.2 °F - 32.0 °F 54% 29.83 in 10.0 mi ESE 13.8 mph - N/A   Overcast